Location: Allen Lane School
(37.8198°N, 89.7382°W)
Time: 06:59:35
(UTC+00:00)

Meteor 1-14 Rocket - Pass Details

Date: 05 July 2022
Orbit: 833 x 919 km, 81.3° (Epoch: 12 August)

Event Time Altitude Azimuth Distance (km) Brightness Sun altitude
Exits shadow 09:19:11 - 181° (S) 2,730 6.4 -14.0°
Reaches altitude 10° 09:19:38 10° 180° (S) 2,559 6.3 -13.9°
Maximum altitude 09:25:27 75° 96° (E) 915 4.5 -13.1°
Drops below altitude 10° 09:31:09 10° 13° (NNE) 2,516 7.5 -12.3°
Sets 09:33:34 0° 11° (NNE) 3,445 8.3 -11.9°
